There are no active watches, warnings or advisories



For GOD so loved the world that HE gave HIS one and only SON, that whoever believes in HIM shall not perish but have eternal life.


Thunder radar more information blitzortung!


Rain radar more information rain snow radar



Select another period ( hide this area )

Units Period Custom range Directly to
Metric English Both
Daily Weekly Monthly Yearly
use both date-selectors for a custom range
previous Day
With this date

WeatherUnderground graphs for this period ( click here )


Daily Summary for Thursday Dec 13 2018
Time Temp. ( °C ) Dew pt. ( °C ) Wind ( km/h ) from Gust ( km/h ) Pressure ( hPa ) Humid.( % ) Rainrate ( cm ) Solar ( W/m2 )
High1,8 -1,3 10,1 South ( 38/81 ) 14,8 1018,8 87 - 0
Average1,4 -1,8 6,9 South #9/19 10,0 1019,2 79 - 0 #0/19
Low0,6 -2,6 3,5   6,4 1018,2 73 -  
Daily Tabular details for Thursday Dec 13 2018
Time Temp. ( °C ) Dew pt. ( °C ) Wind ( km/h ) from Gust ( km/h ) Pressure ( hPa ) Humid.( % ) Rainrate ( cm ) Solar ( W/m2 )
00:04 1,8 -2,6 7,4 SSE 13,0 1018,2 73 - -
00:09 1,8 -2,3 8,4 SSE 12,9 1018,2 74 - -
00:14 1,8 -2,3 9,2 South 11,1 1018,2 74 - -
00:19 1,8 -2,3 7,4 SSE 9,3 1018,2 74 - -
00:24 1,8 -2,3 9,0 SE 8,0 1018,2 74 - -
00:29 1,8 -2,3 6,8 South 9,3 1018,5 74 - -
00:34 1,8 -2,3 6,8 South 9,3 1018,5 74 - -
00:39 1,8 -2,1 6,9 SSW 11,1 1018,5 75 - -
00:44 1,8 -2,0 5,8 South 11,1 1018,5 76 - -
00:49 1,7 -1,9 10,1 SSW 14,8 1018,5 77 - -
00:54 1,6 -1,7 4,0 SSW 7,4 1018,8 79 - -
00:59 1,5 -1,6 5,3 South 8,0 1018,8 80 - -
01:04 1,4 -1,5 7,2 South 11,1 1018,8 81 - -
01:09 1,2 -1,5 5,6 South 7,4 1018,8 82 - -
01:14 1,1 -1,3 5,3 South 9,3 1018,8 84 - -
01:19 0,9 -1,3 8,7 South 9,7 1018,5 85 - -
01:24 0,8 -1,3 6,0 SSE 9,3 1018,5 86 - -
01:29 0,7 -1,4 3,5 SSE 9,3 1018,5 86 - -
01:34 0,6 -1,3 7,1 SE 6,4 1018,5 87 - -
Daily Summary for Thursday Dec 13 2018
Time Temp. ( °C ) Dew pt. ( °C ) Wind ( km/h ) from Gust ( km/h ) Pressure ( hPa ) Humid.( % ) Rainrate ( cm ) Solar ( W/m2 )
High1,8 -1,3 10,1 South ( 38/81 ) 14,8 1018,8 87 - 0
Average1,4 -1,8 6,9 South #9/19 10,0 1019,2 79 - 0 #0/19
Low0,6 -2,6 3,5   6,4 1018,2 73 -  
Daily Tabular details for Thursday Dec 13 2018
Time Temp. ( °C ) Dew pt. ( °C ) Wind ( km/h ) from Gust ( km/h ) Pressure ( hPa ) Humid.( % ) Rainrate ( cm ) Solar ( W/m2 )
00:04 1,8 -2,6 7,4 SSE 13,0 1018,2 73 - -
00:09 1,8 -2,3 8,4 SSE 12,9 1018,2 74 - -
00:14 1,8 -2,3 9,2 South 11,1 1018,2 74 - -
00:19 1,8 -2,3 7,4 SSE 9,3 1018,2 74 - -
00:24 1,8 -2,3 9,0 SE 8,0 1018,2 74 - -
00:29 1,8 -2,3 6,8 South 9,3 1018,5 74 - -
00:34 1,8 -2,3 6,8 South 9,3 1018,5 74 - -
00:39 1,8 -2,1 6,9 SSW 11,1 1018,5 75 - -
00:44 1,8 -2,0 5,8 South 11,1 1018,5 76 - -
00:49 1,7 -1,9 10,1 SSW 14,8 1018,5 77 - -
00:54 1,6 -1,7 4,0 SSW 7,4 1018,8 79 - -
00:59 1,5 -1,6 5,3 South 8,0 1018,8 80 - -
01:04 1,4 -1,5 7,2 South 11,1 1018,8 81 - -
01:09 1,2 -1,5 5,6 South 7,4 1018,8 82 - -
01:14 1,1 -1,3 5,3 South 9,3 1018,8 84 - -
01:19 0,9 -1,3 8,7 South 9,7 1018,5 85 - -
01:24 0,8 -1,3 6,0 SSE 9,3 1018,5 86 - -
01:29 0,7 -1,4 3,5 SSE 9,3 1018,5 86 - -
01:34 0,6 -1,3 7,1 SE 6,4 1018,5 87 - -

Download your copy of this data-set  here

Our weather-data as stored at Weather Underground. Script developed by Jim McMurry. Adapted for the template by Leuven-Template.eu